Weather History for Madisonville, KY

Change the Weather History Date:

Monday, September 24, 2012

  Actual Average (KOWB) Record (KOWB)
Temperature  
Mean Temperature 56 °F -  
Max Temperature 72 °F 75 °F 92 °F (2007)
Min Temperature 39 °F 52 °F 32 °F (1999)
Degree Days  
Heating Degree Days 10    
Growing Degree Days 6 (Base 50)    
Moisture  
Dew Point 42 °F    
Average Humidity 65    
Maximum Humidity 100    
Minimum Humidity 30    
Precipitation  
Precipitation 0.00 in - - ()
Sea Level Pressure  
Sea Level Pressure 30.20 in    
Wind  
Wind Speed 2 mph ()    
Max Wind Speed 8 mph    
Max Gust Speed -    
Visibility 9.5 miles    
Events      
Averages and records for this station are not official NWS values.
T = Trace of Precipitation, MM = Missing Value Source: Averaged Metar Reports

Daily Weather History Graph

Daily Weather History Graph

Search for Another Location

Airport:

Trip Planner

Search our weather history database for the weather conditions in past years. The results will help you decide how hot, cold, wet, or windy it might be!

Date:

Astronomy

Sep. 24, 2012 Rise Set
Actual Time 6:39 AM CDT 6:42 PM CDT
Civil Twilight 6:13 AM CDT 7:08 PM CDT
Nautical Twilight 5:43 AM CDT 7:38 PM CDT
Astronomical Twilight 5:12 AM CDT 8:09 PM CDT
Moon 3:22 PM CDT (9/24) 1:01 AM CDT (9/24)
Length of Visible Light 12h 55m
Length of Day
12h 03m
Waxing Gibbous, 71% of the Moon is Illuminated
Sep 24
Waxing Gibbous
Sep 29
Full
Oct 8
Last Quarter
Oct 15
New
Oct 21
First Quarter

Hourly Weather History & Observations

Time (CDT) Temp. Windchill Dew Point Humidity Pressure Visibility Wind Dir Wind Speed Gust Speed Precip Events Conditions
12:15 AM 45.1 °F - 44.2 °F 97% 30.27 in 10.0 mi Calm Calm - N/A   Clear
12:35 AM 44.6 °F - 44.1 °F 98% 30.27 in 10.0 mi Calm Calm - N/A   Clear
12:55 AM 43.0 °F 41.3 °F 42.8 °F 99% 30.27 in 10.0 mi North 3.5 mph - N/A   Clear
1:15 AM 44.1 °F - 44.1 °F 100% 30.27 in 10.0 mi Calm Calm - N/A   Clear
1:55 AM 43.5 °F - 43.3 °F 99% 30.27 in 10.0 mi Calm Calm - N/A   Clear
2:15 AM 41.7 °F - 41.5 °F 99% 30.27 in 10.0 mi Calm Calm - N/A   Clear
2:35 AM 42.1 °F - 42.1 °F 100% 30.28 in 10.0 mi Calm Calm - N/A   Clear
2:55 AM 41.0 °F - 40.8 °F 99% 30.27 in 10.0 mi Calm Calm - N/A   Clear
3:15 AM 41.2 °F - 41.2 °F 100% 30.27 in 10.0 mi Calm Calm - N/A   Clear
3:35 AM 40.6 °F - 40.6 °F 100% 30.27 in 10.0 mi Calm Calm - N/A   Clear
3:55 AM 41.2 °F 39.2 °F 41.2 °F 100% 30.27 in 7.0 mi WSW 3.5 mph - N/A   Clear
4:15 AM 40.5 °F - 40.5 °F 100% 30.27 in 10.0 mi Calm Calm - N/A   Clear
4:35 AM 40.5 °F - 40.5 °F 100% 30.27 in 7.0 mi Calm Calm - N/A   Clear
4:55 AM 40.6 °F - 40.6 °F 100% 30.27 in 2.5 mi Calm Calm - N/A   Clear
5:15 AM 40.3 °F - 40.3 °F 100% 30.27 in 4.0 mi Calm Calm - N/A   Clear
5:35 AM 39.4 °F - 39.4 °F 100% 30.28 in 7.0 mi Calm Calm - N/A   Clear
5:55 AM 39.9 °F - 39.9 °F 100% 30.29 in 7.0 mi Calm Calm - N/A   Clear
6:15 AM 39.2 °F - 39.2 °F 100% 30.29 in 10.0 mi Calm Calm - N/A   Clear
6:35 AM 39.2 °F - 39.2 °F 100% 30.29 in 7.0 mi Calm Calm - N/A   Clear
6:55 AM 39.4 °F - 39.4 °F 100% 30.30 in 2.0 mi Calm Calm - N/A   Clear
7:15 AM 39.4 °F - 39.4 °F 100% 30.30 in 10.0 mi Calm Calm - N/A   Clear
7:35 AM 41.9 °F - 41.9 °F 100% 30.30 in 10.0 mi Calm Calm - N/A   Clear
7:55 AM 44.6 °F - 44.6 °F 100% 30.29 in 10.0 mi Calm Calm - N/A   Clear
8:15 AM 47.5 °F - 45.7 °F 93% 30.29 in 10.0 mi Calm Calm - N/A   Clear
8:35 AM 50.7 °F - 48.0 °F 90% 30.29 in 10.0 mi Calm Calm - N/A   Clear
8:55 AM 54.7 °F - 48.6 °F 80% 30.29 in 10.0 mi Calm Calm - N/A   Clear
9:15 AM 56.8 °F - 48.9 °F 75% 30.29 in 10.0 mi Calm Calm - N/A   Clear
9:35 AM 59.4 °F - 48.7 °F 68% 30.29 in 10.0 mi South 3.5 mph - N/A   Clear
9:55 AM 62.1 °F - 45.7 °F 55% 30.28 in 10.0 mi SSE 4.6 mph - N/A   Clear
10:15 AM 64.0 °F - 42.1 °F 45% 30.28 in 10.0 mi SE 5.8 mph - N/A   Clear
10:35 AM 64.9 °F - 40.3 °F 40% 30.28 in 10.0 mi ESE 5.8 mph - N/A   Clear
10:55 AM 65.5 °F - 37.8 °F 36% 30.27 in 10.0 mi South 4.6 mph - N/A   Clear
11:15 AM 65.5 °F - 37.4 °F 35% 30.27 in 10.0 mi SSE 5.8 mph - N/A   Clear
11:35 AM 66.2 °F - 38.3 °F 36% 30.26 in 10.0 mi SE 5.8 mph - N/A   Clear
11:55 AM 66.9 °F - 39.2 °F 36% 30.26 in 10.0 mi South 8.1 mph - N/A   Clear
12:15 PM 67.3 °F - 38.3 °F 35% 30.25 in 10.0 mi SE 3.5 mph - N/A   Clear
12:35 PM 68.0 °F - 38.7 °F 34% 30.24 in 10.0 mi SSE 6.9 mph - N/A   Clear
12:55 PM 68.7 °F - 39.4 °F 34% 30.23 in 10.0 mi SSW 6.9 mph - N/A   Clear
1:15 PM 69.3 °F - 38.5 °F 32% 30.21 in 10.0 mi SSE 6.9 mph - N/A   Clear
1:35 PM 69.8 °F - 39.6 °F 33% 30.21 in 10.0 mi South 5.8 mph - N/A   Clear
2:15 PM 70.7 °F - 37.6 °F 30% 30.18 in 10.0 mi South 3.5 mph - N/A   Clear
2:35 PM 71.1 °F - 38.8 °F 31% 30.17 in 10.0 mi South 3.5 mph - N/A   Clear
2:55 PM 71.8 °F - 39.4 °F 31% 30.16 in 10.0 mi SSW 5.8 mph - N/A   Clear
3:15 PM 72.0 °F - 39.6 °F 31% 30.15 in 10.0 mi SSW 8.1 mph - N/A   Clear
3:35 PM 72.1 °F - 40.3 °F 32% 30.14 in 10.0 mi South 5.8 mph - N/A   Clear
3:55 PM 72.5 °F - 39.6 °F 30% 30.13 in 10.0 mi South 6.9 mph - N/A   Clear
4:15 PM 72.5 °F - 39.4 °F 30% 30.12 in 10.0 mi South 6.9 mph - N/A   Clear
4:35 PM 72.9 °F - 39.9 °F 30% 30.11 in 10.0 mi SW 8.1 mph - N/A   Clear
4:55 PM 72.5 °F - 41.5 °F 33% 30.10 in 10.0 mi South 4.6 mph - N/A   Clear
5:15 PM 71.8 °F - 39.7 °F 31% 30.09 in 10.0 mi SSW 5.8 mph - N/A   Clear
5:35 PM 71.2 °F - 41.7 °F 34% 30.09 in 10.0 mi South 3.5 mph - N/A   Clear
5:55 PM 70.5 °F - 41.2 °F 35% 30.08 in 10.0 mi South 4.6 mph - N/A   Clear
6:15 PM 68.9 °F - 42.4 °F 38% 30.08 in 10.0 mi South 4.6 mph - N/A   Clear
6:35 PM 67.6 °F - 42.3 °F 40% 30.07 in 10.0 mi South 4.6 mph - N/A   Clear
6:55 PM 65.7 °F - 43.0 °F 44% 30.06 in 10.0 mi South 4.6 mph - N/A   Clear
7:15 PM 64.8 °F - 43.7 °F 46% 30.06 in 10.0 mi South 5.8 mph - N/A   Clear
7:55 PM 63.1 °F - 44.6 °F 51% 30.05 in 10.0 mi South 5.8 mph - N/A   Clear
8:15 PM 62.8 °F - 44.8 °F 52% 30.06 in 10.0 mi South 4.6 mph - N/A   Clear
8:35 PM 62.6 °F - 45.0 °F 52% 30.06 in 10.0 mi South 4.6 mph - N/A   Clear
8:55 PM 61.7 °F - 45.5 °F 55% 30.06 in 10.0 mi South 3.5 mph - N/A   Clear
9:15 PM 60.8 °F - 46.0 °F 58% 30.06 in 10.0 mi SSW 5.8 mph - N/A   Clear
9:35 PM 60.4 °F - 46.8 °F 61% 30.07 in 10.0 mi South 4.6 mph - N/A   Clear
9:55 PM 59.9 °F - 47.3 °F 63% 30.06 in 10.0 mi South 4.6 mph - N/A   Clear
10:15 PM 59.5 °F - 47.5 °F 64% 30.07 in 10.0 mi South 3.5 mph - N/A   Clear
10:35 PM 59.9 °F - 47.3 °F 63% 30.06 in 10.0 mi SSE 3.5 mph - N/A   Clear
10:55 PM 59.7 °F - 48.4 °F 66% 30.06 in 10.0 mi Calm Calm - N/A   Mostly Cloudy
11:55 PM 60.4 °F - 50.7 °F 70% 30.05 in 10.0 mi Calm Calm - N/A   Overcast